Onweer trekt over Ninove

StormCell - Onweer anders bekeken

Welkom op Stormcell.be, dé website waar onweer al sinds 2011 anders wordt bekeken.

Op onze site vindt de bezoeker duidelijke weermodellen, data van het StormCell weerstation in regio Ninove (België) én kan men het onweer live volgen via lightningmaps.org.

We beschikken over een Facebook pagina waar weer gerelateerde berichten worden gedeeld en waar we zelf ook waarschuwingen voor onweer of noodweer uitsturen indien nodig.

U leest het goed: indien nodig, dus geen onheilspellende berichten als de storm of het onweer slechts in een glas water zal woeden. We zijn niet uit op sensatie of het zaaien van angst. We bekijken het onweer met klare kijk op de feiten. 

[Source: ADDS]
METAR
EBBR 170920Z 19005KT 150V230 9999 SCT031 22/14 Q1020 NOSIG =
EBBR 170520Z 1706/1812 16004KT CAVOK
TAF
EBBR 170520Z 1706/1812 16004KT CAVOK =

Visweer Vlissingen

StormCell is een non profit organisatie zonder oogmerk tot sensatie